Location: Asis
(14.1331°N, 120.9056°E)
Time: 02:40:50
(UTC+00:00)

Intelsat 5-3 Rocket - Pass Details

Date: 15 January 2026
Orbit: 280 x 4774 km, 23.5° (Epoch: 17 February)

Event Time Altitude Azimuth Distance (km) Brightness Sun altitude
Rises 11:19:36 0° 288° (WNW) 5,751 8.3 -22.0°
Reaches altitude 10° 11:24:49 10° 294° (WNW) 3,910 7.3 -23.2°
Maximum altitude 11:33:16 44° 4° (N) 1,149 3.7 -25.1°
Enters shadow 11:33:27 44° 9° (N) 1,132 3.6 -25.2°
